Location: PACMO
(41.3967°N, 90.3760°W)
Time: 11:06:50
(UTC-05:00)

Amateur Radio Satellites - All Passes

Search period start: 23 July 2014 10:36
Search period end: 24 July 2014 10:36
Location: PACMO, 41.3967°N, 90.3760°W

Satellite Date Start Highest point End Downlink Frequencies (MHz)
Time Altitude Azimuth
PANSAT 23 Jul 10:38:18 10:39:23 11° 187° (S) 10:40:27 not established
Oscar 11 23 Jul 10:48:11 10:52:31 74° 102° (ESE) 10:56:50 145.825 FM, Beacon 2401.500 USB
Saudisat 1A 23 Jul 10:49:54 10:53:28 23° 315° (NW) 10:57:03 436.775 MHz
FUNcube-1 23 Jul 10:52:19 10:55:55 28° 96° (E) 10:59:30 145.950 - 145.970 MHz USB
UKube-1 23 Jul 11:33:03 11:36:14 20° 295° (WNW) 11:39:24 145.840 MHz, 145.915 MHz
Sapphire 23 Jul 11:33:24 11:38:51 74° 59° (ENE) 11:44:15 437.095 MHz 1200 baud AX-25 AFSK
HO-68 23 Jul 11:37:46 11:43:55 32° 299° (WNW) 11:50:03 435.675 MHz FM
PCSat 23 Jul 12:07:39 12:12:56 54° 246° (WSW) 12:18:11 145.825 MHz
Oscar 11 23 Jul 12:26:54 12:28:05 11° 299° (WNW) 12:29:17 145.825 FM, Beacon 2401.500 USB
FUNcube-1 23 Jul 12:28:53 12:32:13 24° 292° (WNW) 12:35:32 145.950 - 145.970 MHz USB
KITSAT 1 23 Jul 12:36:22 12:38:13 11° 360° (N) 12:40:04 435.175 FM
Oscar 19 23 Jul 12:59:07 13:03:35 32° 67° (ENE) 13:08:04 437.125 CW, 437.150 USB
JAS-1B 23 Jul 13:08:20 13:14:51 24° 52° (NE) 13:21:51 435.800 - 435.900 CW/SSB
Sapphire 23 Jul 13:18:38 13:21:36 15° 256° (WSW) 13:24:34 437.095 MHz 1200 baud AX-25 AFSK
RS-15 23 Jul 13:23:51 13:32:48 29° 104° (ESE) 13:41:34 29.354 - 29.394 USB, Beacon 29.352 USB
Oscar 16 23 Jul 13:25:44 13:30:44 58° 72° (ENE) 13:35:46 437.025 USB, Beacon 2401.1428
ITAMSAT 1 23 Jul 13:34:11 13:38:47 32° 67° (ENE) 13:43:23 435.822 SSB
Gurwin Techsat 1B 23 Jul 13:41:02 13:44:12 16° 61° (ENE) 13:47:22 435.225 FM
AO-27 23 Jul 13:51:15 13:56:14 47° 70° (ENE) 14:01:14 436.795 MHz FM
Uribyol 2 23 Jul 13:54:42 13:59:45 52° 71° (ENE) 14:04:48 436.500 FM
AO-Echo 23 Jul 14:03:13 14:08:23 60° 73° (ENE) 14:13:38 ?
SO-50 23 Jul 14:11:41 14:16:03 56° 119° (ESE) 14:20:30 436.795 FM
KITSAT 1 23 Jul 14:32:04 14:37:39 20° 31° (NNE) 14:43:12 435.175 FM
Oscar 19 23 Jul 14:38:23 14:42:53 31° 264° (W) 14:47:25 437.125 CW, 437.150 USB
JAS-1B 23 Jul 14:55:24 15:03:51 86° 74° (ENE) 15:13:37 435.800 - 435.900 CW/SSB
TMSAT-1 23 Jul 14:58:00 15:03:10 56° 72° (ENE) 15:08:22 436.925 FM
AO-7 23 Jul 15:06:30 15:13:35 32° 57° (ENE) 15:20:39 29.400 - 29.500 MHz
Oscar 16 23 Jul 15:07:17 15:10:28 17° 269° (W) 15:13:41 437.025 USB, Beacon 2401.1428
UOSAT-12 23 Jul 15:08:27 15:11:12 16° 109° (ESE) 15:13:59 437.025 FM, 437.400 FM
ITAMSAT 1 23 Jul 15:13:36 15:18:13 32° 264° (W) 15:22:52 435.822 SSB
Gurwin Techsat 1B 23 Jul 15:18:16 15:23:33 71° 258° (WSW) 15:28:53 435.225 FM
AO-27 23 Jul 15:32:01 15:35:58 22° 267° (W) 15:39:56 436.795 MHz FM
RS-15 23 Jul 15:32:55 15:44:04 76° 305° (NW) 15:55:03 29.354 - 29.394 USB, Beacon 29.352 USB
Uribyol 2 23 Jul 15:35:52 15:39:31 19° 268° (W) 15:43:11 436.500 FM
AO-Echo 23 Jul 15:44:06 15:47:32 17° 269° (W) 15:50:59 ?
SO-50 23 Jul 15:53:38 15:56:58 20° 318° (NW) 16:00:21 436.795 FM
Uosat F 23 Jul 15:55:19 16:00:07 46° 70° (ENE) 16:04:56 435.120 FM
OPAL 23 Jul 16:25:30 16:29:52 29° 98° (E) 16:34:15 ?
KITSAT 1 23 Jul 16:26:46 16:34:49 64° 55° (NE) 16:42:47 435.175 FM
JAS-2 23 Jul 16:30:49 16:34:44 15° 54° (NE) 16:38:33 435.800 - 435.900 CW/SSB, 435.910 FM
TMSAT-1 23 Jul 16:39:51 16:43:26 18° 268° (W) 16:47:02 436.925 FM
UOSAT-12 23 Jul 16:46:18 16:50:50 60° 306° (NW) 16:55:30 437.025 FM, 437.400 FM
JAS-1B 23 Jul 16:49:22 16:55:35 22° 275° (W) 17:02:25 435.800 - 435.900 CW/SSB
AO-7 23 Jul 16:57:35 17:05:50 63° 256° (WSW) 17:14:09 29.400 - 29.500 MHz
Hamsat 23 Jul 17:28:24 17:31:51 26° 69° (ENE) 17:35:19 145.90 MHz
Uosat F 23 Jul 17:35:22 17:39:06 21° 267° (W) 17:42:52 435.120 FM
Saudisat 1A 23 Jul 17:36:10 17:40:17 37° 50° (NE) 17:44:22 436.775 MHz
RS-15 23 Jul 17:49:32 17:58:34 28° 333° (NNW) 18:07:36 29.354 - 29.394 USB, Beacon 29.352 USB
Oscar 10/S400 23 Jul 17:58:04 18:04:42 12° 142° (SE) 18:11:14 145.825 - 145.975 CW/USB, Beacon 145.810 USB
OPAL 23 Jul 18:04:13 18:08:44 34° 294° (WNW) 18:13:17 ?
JAS-2 23 Jul 18:10:44 18:18:31 68° 72° (ENE) 18:26:00 435.800 - 435.900 CW/SSB, 435.910 FM
KITSAT 1 23 Jul 18:22:59 18:29:38 29° 254° (WSW) 18:36:15 435.175 FM
UOSAT-12 23 Jul 18:30:26 18:32:00 11° 326° (NNW) 18:33:34 437.025 FM, 437.400 FM
STRAND 1 23 Jul 18:39:47 18:42:48 16° 91° (E) 18:45:48 ?
SO-67 23 Jul 18:50:36 18:53:36 28° 72° (ENE) 18:56:38 435.3500 MHz FM
Hamsat 23 Jul 19:04:15 19:07:45 26° 265° (W) 19:11:17 145.90 MHz
Saudisat 1A 23 Jul 19:16:08 19:19:41 24° 247° (WSW) 19:23:13 436.775 MHz
JAS-2 23 Jul 19:57:37 20:03:54 26° 268° (W) 20:10:05 435.800 - 435.900 CW/SSB, 435.910 FM
RS-15 23 Jul 20:08:17 20:16:04 21° 9° (N) 20:23:55 29.354 - 29.394 USB, Beacon 29.352 USB
STRAND 1 23 Jul 20:17:21 20:22:25 62° 287° (WNW) 20:27:25 ?
HO-68 23 Jul 20:18:17 20:24:48 39° 64° (ENE) 20:31:19 435.675 MHz FM
SO-67 23 Jul 20:24:34 20:26:44 16° 267° (W) 20:28:54 435.3500 MHz FM
UKube-1 23 Jul 20:51:52 20:55:49 34° 69° (ENE) 20:59:47 145.840 MHz, 145.915 MHz
SO-50 23 Jul 21:05:05 21:06:07 11° 33° (NNE) 21:07:08 436.795 FM
Oscar 11 23 Jul 21:43:10 21:47:23 57° 74° (ENE) 21:51:37 145.825 FM, Beacon 2401.500 USB
FUNcube-1 23 Jul 21:49:07 21:52:41 25° 68° (ENE) 21:56:11 145.950 - 145.970 MHz USB
HO-68 23 Jul 22:05:43 22:12:25 42° 261° (W) 22:19:08 435.675 MHz FM
RS-15 23 Jul 22:22:04 22:32:25 43° 42° (NE) 22:43:01 29.354 - 29.394 USB, Beacon 29.352 USB
UKube-1 23 Jul 22:28:44 22:32:05 21° 265° (W) 22:35:28 145.840 MHz, 145.915 MHz
SO-50 23 Jul 22:43:04 22:47:44 53° 53° (NE) 22:52:26 436.795 FM
MaSat-1 23 Jul 22:47:56 22:51:45 68° 113° (ESE) 22:56:17 437.345 MHz
Oscar 11 23 Jul 23:22:09 23:23:56 12° 270° (W) 23:25:43 145.825 FM, Beacon 2401.500 USB
FUNcube-1 23 Jul 23:25:07 23:28:58 29° 264° (W) 23:32:46 145.950 - 145.970 MHz USB
UOSAT-12 23 Jul 23:36:36 23:39:57 19° 41° (NE) 23:43:16 437.025 FM, 437.400 FM
AO-40 24 Jul 00:08:55 05:53:02 39° 181° (S) 10:20:56 Beacon 2401.320
Lituanica SAT-1 24 Jul 00:16:55 00:18:57 41° 140° (SE) 00:21:01 437.275 MHz beacon
SO-50 24 Jul 00:24:36 00:27:56 19° 250° (WSW) 00:31:17 436.795 FM
MaSat-1 24 Jul 00:27:20 00:29:48 15° 315° (NW) 00:32:26 437.345 MHz
RS-15 24 Jul 00:34:29 00:45:18 63° 245° (WSW) 00:56:31 29.354 - 29.394 USB, Beacon 29.352 USB
PCSat 24 Jul 01:07:54 01:11:36 19° 105° (ESE) 01:15:19 145.825 MHz
Oscar 19 24 Jul 01:13:32 01:14:12 10° 88° (E) 01:14:53 437.125 CW, 437.150 USB
UOSAT-12 24 Jul 01:15:52 01:20:35 69° 240° (WSW) 01:25:13 437.025 FM, 437.400 FM
Oscar 16 24 Jul 01:38:10 01:41:58 21° 93° (E) 01:45:46 437.025 USB, Beacon 2401.1428
ITAMSAT 1 24 Jul 01:49:53 01:50:42 10° 88° (E) 01:51:32 435.822 SSB
Lituanica SAT-1 24 Jul 01:50:33 01:51:54 15° 338° (NNW) 01:53:16 437.275 MHz beacon
ISS 24 Jul 01:55:24 01:58:43 67° 142° (SE) 02:02:04 145.800 FM
AO-27 24 Jul 02:05:29 02:08:41 16° 91° (E) 02:11:53 436.795 MHz FM
Uribyol 2 24 Jul 02:08:27 02:11:57 18° 92° (E) 02:15:27 436.500 FM
AO-Echo 24 Jul 02:11:45 02:15:23 19° 91° (E) 02:18:55 ?
Sapphire 24 Jul 02:15:05 02:20:26 68° 116° (ESE) 02:25:50 437.095 MHz 1200 baud AX-25 AFSK
JAS-1B 24 Jul 02:42:34 02:50:51 32° 90° (E) 02:58:13 435.800 - 435.900 CW/SSB
Oscar 19 24 Jul 02:49:02 02:54:13 89° 284° (WNW) 02:59:23 437.125 CW, 437.150 USB
PCSat 24 Jul 02:49:10 02:54:30 60° 303° (WNW) 02:59:53 145.825 MHz
RS-15 24 Jul 02:52:05 02:55:19 12° 265° (W) 02:58:36 29.354 - 29.394 USB, Beacon 29.352 USB
TMSAT-1 24 Jul 03:14:31 03:18:35 22° 93° (E) 03:22:38 436.925 FM
Oscar 16 24 Jul 03:16:37 03:21:34 48° 289° (WNW) 03:26:30 437.025 USB, Beacon 2401.1428
ITAMSAT 1 24 Jul 03:25:40 03:30:53 89° 285° (WNW) 03:36:03 435.822 SSB
ISS 24 Jul 03:32:55 03:35:42 23° 340° (NNW) 03:38:29 145.800 FM
Gurwin Techsat 1B 24 Jul 03:34:31 03:39:39 47° 99° (E) 03:44:44 435.225 FM
OPAL 24 Jul 03:40:29 03:45:17 52° 69° (ENE) 03:50:06 ?
AO-27 24 Jul 03:43:29 03:48:36 60° 288° (WNW) 03:53:41 436.795 MHz FM
Uribyol 2 24 Jul 03:46:43 03:51:45 54° 289° (WNW) 03:56:45 436.500 FM
AO-Echo 24 Jul 03:49:28 03:54:27 50° 289° (WNW) 03:59:15 ?
Sapphire 24 Jul 04:00:21 04:04:23 21° 315° (NW) 04:08:25 437.095 MHz 1200 baud AX-25 AFSK
Uosat F 24 Jul 04:04:40 04:07:09 14° 90° (E) 04:09:38 435.120 FM
Oscar 19 24 Jul 04:30:52 04:32:47 12° 302° (WNW) 04:34:42 437.125 CW, 437.150 USB
JAS-1B 24 Jul 04:32:21 04:41:54 64° 291° (WNW) 04:50:16 435.800 - 435.900 CW/SSB
PCSat 24 Jul 04:37:00 04:39:05 12° 324° (NW) 04:41:12 145.825 MHz
TMSAT-1 24 Jul 04:53:40 04:58:43 46° 290° (WNW) 05:03:45 436.925 FM
Lituanica SAT-1 24 Jul 04:58:50 04:59:06 10° 16° (NNE) 04:59:22 437.275 MHz beacon
AO-7 24 Jul 04:59:07 05:07:05 46° 100° (E) 05:14:56 29.400 - 29.500 MHz
ITAMSAT 1 24 Jul 05:07:39 05:09:35 12° 302° (WNW) 05:11:30 435.822 SSB
ISS 24 Jul 05:11:24 05:13:19 14° 0° (N) 05:15:15 145.800 FM
Gurwin Techsat 1B 24 Jul 05:15:11 05:19:18 23° 296° (WNW) 05:23:24 435.225 FM
OPAL 24 Jul 05:21:11 05:24:28 18° 265° (W) 05:27:47 ?
Uosat F 24 Jul 05:41:25 05:46:25 68° 287° (WNW) 05:51:23 435.120 FM
STRAND 1 24 Jul 05:55:29 05:59:34 24° 65° (ENE) 06:03:40 ?
JAS-1B 24 Jul 06:24:52 06:30:20 17° 313° (NW) 06:35:33 435.800 - 435.900 CW/SSB
Lituanica SAT-1 24 Jul 06:30:06 06:32:15 65° 34° (NE) 06:34:23 437.275 MHz beacon
ISS 24 Jul 06:48:10 06:50:57 23° 20° (NNE) 06:53:44 145.800 FM
Hamsat 24 Jul 06:49:00 06:53:11 52° 100° (E) 06:57:23 145.90 MHz
AO-7 24 Jul 06:52:06 06:59:44 42° 299° (WNW) 07:07:20 29.400 - 29.500 MHz
KITSAT 1 24 Jul 06:55:09 07:02:38 43° 110° (ESE) 07:10:08 435.175 FM
MaSat-1 24 Jul 07:06:23 07:10:39 24° 51° (NE) 07:14:51 437.345 MHz
JAS-2 24 Jul 07:06:48 07:12:56 55° 99° (E) 07:18:21 435.800 - 435.900 CW/SSB, 435.910 FM
STRAND 1 24 Jul 07:33:38 07:38:30 42° 261° (W) 07:43:24 ?
SO-67 24 Jul 07:47:07 07:50:18 33° 97° (E) 07:53:28 435.3500 MHz FM
ISS 24 Jul 08:24:35 08:27:56 67° 218° (SW) 08:31:15 145.800 FM
Hamsat 24 Jul 08:26:21 08:28:44 15° 296° (WNW) 08:31:07 145.90 MHz
PANSAT 24 Jul 08:33:49 08:35:03 11° 174° (S) 08:36:16 not established
MaSat-1 24 Jul 08:43:11 08:48:23 55° 250° (WSW) 08:53:21 437.345 MHz
KITSAT 1 24 Jul 08:50:14 08:57:58 47° 310° (NW) 09:05:45 435.175 FM
JAS-2 24 Jul 08:52:43 08:57:28 23° 300° (WNW) 09:01:50 435.800 - 435.900 CW/SSB, 435.910 FM
SO-67 24 Jul 09:21:12 09:23:05 14° 293° (WNW) 09:24:58 435.3500 MHz FM
Saudisat 1A 24 Jul 09:21:38 09:26:04 85° 121° (ESE) 09:30:31 436.775 MHz
Sapphire 24 Jul 09:22:02 09:23:42 11° 35° (NE) 09:25:22 437.095 MHz 1200 baud AX-25 AFSK
HO-68 24 Jul 09:32:54 09:39:30 39° 98° (E) 09:46:04 435.675 MHz FM
Oscar 11 24 Jul 09:33:43 09:34:23 10° 89° (E) 09:35:02 145.825 FM, Beacon 2401.500 USB
PCSat 24 Jul 09:54:33 09:58:26 19° 44° (NE) 10:02:17 145.825 MHz
PANSAT 24 Jul 10:13:28 10:14:26 11° 187° (S) 10:15:24 not established
UKube-1 24 Jul 10:15:44 10:20:05 63° 102° (ESE) 10:24:23 145.840 MHz, 145.915 MHz
